EW0205 Weather Reports


time (UTC)temp
C
wind
direction
speed
KPH
gust
KPH
rain 1hr
cm
rain 24hr
cm
rain mn
cm
humidity
%
barometer
mb
20260510160020 14 360 17.7 29.0 0.00 0.08 0.08 52 1008.7
20260510154519 15 261 17.7 27.4 0.00 0.08 0.08 54 1008.6
20260510153033 14 246 12.9 25.7 0.00 0.08 0.08 55 1008.6
20260510151514 14 273 19.3 29.0 0.00 0.08 0.08 56 1008.4
20260510150109 13 360 16.1 27.4 0.00 0.08 0.08 59 1008.5
20260510144514 13 250 12.9 27.4 0.00 0.08 0.08 62 1008.4
20260510143004 13 226 14.5 32.2 0.00 0.08 0.08 60 1008.5
20260510141502 13 360 14.5 29.0 0.00 0.08 0.08 60 1008.4
20260510140058 13 217 16.1 33.8 0.00 0.08 0.08 62 1008.4
20260510134555 13 221 12.9 30.6 0.00 0.08 0.08 64 1008.1
20260510133052 12 240 14.5 22.5 0.00 0.08 0.08 67 1008.2
20260510131550 12 254 11.3 22.5 0.00 0.08 0.08 68 1008.2
20260510130046 12 222 14.5 25.7 0.00 0.08 0.08 70 1007.9
20260510124543 12 360 11.3 24.1 0.00 0.08 0.08 71 1007.6
20260510123040 12 194 9.7 20.9 0.00 0.08 0.08 75 1007.4
20260510121537 12 268 6.4 14.5 0.00 0.08 0.08 75 1007.5
20260510120035 12 227 9.7 20.9 0.00 0.08 0.08 76 1007.2
20260510114533 12 235 4.8 16.1 0.00 0.08 0.08 80 1007.1
20260510113028 11 204 3.2 14.5 0.00 0.08 0.08 82 1007.0
20260510111525 11 229 3.2 12.9 0.00 0.08 0.08 87 1006.9
20260510110034 11 238 0.0 9.7 0.00 0.08 0.08 94 1006.7
20260510104517 10 174 0.0 0.0 0.00 0.08 0.08 94 1006.5
20260510103015 10 175 0.0 0.0 0.00 0.08 0.08 95 1006.1
20260510101514 10 157 0.0 0.0 0.00 0.08 0.08 95 1006.0
20260510100012 9 157 0.0 0.0 0.00 0.08 0.08 95 1005.9
20260510094510 9 157 0.0 0.0 0.00 0.08 0.08 94 1005.7
20260510093008 9 157 3.2 6.4 0.00 0.08 0.08 95 1005.4
20260510091506 9 174 0.0 0.0 0.00 0.08 0.08 96 1005.3
20260510090004 9 183 0.0 0.0 0.00 0.08 0.08 95 1005.4
20260510084502 9 180 3.2 4.8 0.00 0.08 0.08 95 1005.2
20260510083000 9 150 0.0 0.0 0.00 0.08 0.08 95 1005.0
20260510081600 8 163 0.0 0.0 0.00 0.08 0.08 95 1004.9
20260510080100 9 163 3.2 8.0 0.00 0.08 0.08 95 1005.0
20260510074618 9 141 4.8 8.0 0.00 0.08 0.08 94 1005.0
20260510073054 9 138 0.0 6.4 0.00 0.08 0.08 94 1004.8
20260510071558 10 167 3.2 6.4 0.00 0.08 0.08 94 1004.7
20260510070050 10 152 4.8 8.0 0.03 0.08 0.08 93 1004.5
20260510064605 10 144 8.0 12.9 0.03 0.08 0.08 94 1004.4
20260510063053 10 155 9.7 16.1 0.03 0.08 0.08 94 1004.3
20260510061546 10 153 8.0 14.5 0.05 0.08 0.08 94 1004.1
20260510060054 10 138 6.4 14.5 0.05 0.05 0.05 94 1004.1
20260510054545 10 146 8.0 14.5 0.05 0.05 0.05 94 1004.3
20260510053044 10 134 9.7 16.1 0.05 0.05 0.05 93 1004.3
20260510051553 10 157 6.4 19.3 0.03 0.03 0.03 92 1004.7
20260510050041 10 168 12.9 20.9 0.00 0.00 0.00 91 1004.4
20260510044541 10 175 12.9 25.7 0.00 0.00 0.00 90 1004.4
20260510043046 10 146 16.1 27.4 0.00 0.00 0.00 90 1004.3
20260510041549 10 155 12.9 24.1 0.00 0.00 0.00 91 1004.1
20260510040031 10 134 12.9 29.0 0.00 0.00 0.00 91 1003.7
20260510034529 10 155 14.5 22.5 0.00 0.00 0.00 90 1003.9
20260510033030 10 133 19.3 30.6 0.00 0.00 0.00 90 1003.9
20260510031528 10 146 19.3 29.0 0.00 0.00 0.00 90 1004.0
20260510030026 10 134 16.1 29.0 0.00 0.00 0.00 90 1004.0
20260510024525 10 153 14.5 27.4 0.00 0.00 0.00 90 1004.2
20260510023023 10 154 16.1 27.4 0.00 0.00 0.00 89 1004.6
20260510021521 10 119 14.5 25.7 0.00 0.00 0.00 89 1004.7
20260510020021 10 157 12.9 22.5 0.00 0.00 0.00 89 1005.0
20260510014523 10 130 14.5 25.7 0.00 0.00 0.00 88 1005.0
20260510013019 10 167 14.5 24.1 0.00 0.00 0.00 88 1005.2
20260510011531 10 142 16.1 24.1 0.00 0.00 0.00 88 1005.0
20260510010118 10 153 14.5 20.9 0.00 0.00 0.00 88 1005.1
20260510004517 10 125 11.3 22.5 0.00 0.00 0.00 87 1004.9
20260510003017 10 146 11.3 19.3 0.00 0.00 0.00 86 1004.9
20260510001520 11 148 9.7 25.7 0.00 0.00 0.00 84 1005.0
20260510000015 11 141 12.9 22.5 0.00 0.00 0.00 83 1005.0
20260509234515 11 137 14.5 24.1 0.00 0.00 0.00 82 1004.7
20260509233016 11 126 14.5 25.7 0.00 0.00 0.00 80 1004.7
20260509231525 12 131 16.1 27.4 0.00 0.00 0.00 79 1004.7
20260509230012 12 129 19.3 33.8 0.00 0.00 0.00 77 1004.9
20260509224512 13 116 17.7 30.6 0.00 0.00 0.00 75 1005.1
20260509223014 13 140 19.3 30.6 0.00 0.00 0.00 74 1005.1
20260509221525 13 132 20.9 37.0 0.00 0.00 0.00 73 1005.0
20260509220010 13 130 20.9 30.6 0.00 0.00 0.00 71 1004.9
20260509214508 13 132 22.5 32.2 0.00 0.00 0.00 70 1004.9
20260509213008 14 152 14.5 32.2 0.00 0.00 0.00 70 1005.0
20260509211506 14 132 16.1 27.4 0.00 0.00 0.00 67 1005.0
20260509210005 14 150 19.3 35.4 0.00 0.00 0.00 67 1005.1
20260509204504 15 360 20.9 33.8 0.00 0.00 0.00 64 1005.2
20260509203002 15 150 20.9 32.2 0.00 0.00 0.00 62 1005.4
20260509201502 15 153 20.9 35.4 0.00 0.00 0.00 62 1005.4
20260509200108 15 123 20.9 37.0 0.00 0.00 0.00 58 1005.5
20260509194559 16 134 22.5 37.0 0.00 0.00 0.00 53 1005.7
20260509193119 16 146 20.9 35.4 0.00 0.00 0.00 49 1005.9
20260509191615 16 150 20.9 37.0 0.00 0.00 0.00 46 1006.0
20260509190110 16 146 27.4 37.0 0.00 0.00 0.00 44 1006.0
20260509184554 16 179 16.1 33.8 0.00 0.00 0.00 46 1006.1
20260509183054 16 117 17.7 29.0 0.00 0.00 0.00 43 1006.3
20260509181551 16 138 19.3 29.0 0.00 0.00 0.00 43 1006.4
20260509180051 16 129 22.5 32.2 0.00 0.00 0.00 41 1006.7
20260509174547 16 133 16.1 32.2 0.00 0.00 0.00 43 1007.0
20260509173055 16 149 19.3 32.2 0.00 0.00 0.00 40 1007.2
20260509171556 16 126 11.3 24.1 0.00 0.00 0.00 39 1007.3
20260509170043 15 128 12.9 24.1 0.00 0.00 0.00 39 1007.6
20260509164547 16 135 16.1 24.1 0.00 0.00 0.00 39 1007.8
20260509163046 16 129 14.5 24.1 0.00 0.00 0.00 38 1007.9
20260509161534 15 139 22.5 30.6 0.00 0.00 0.00 37 1008.1